{"data":{"norad_id":68947,"intl_designator":"2026-098AE","name":"KUIPER-00453","alt_names":[],"object_type":"PAYLOAD","status":"ACTIVE","operator":null,"country":"US","launch_date":"2026-04-30","launch_site_code":"FRGUI","launch_vehicle":null,"mission":null,"orbit_class":"UNKNOWN","rcs_meters":null,"size_class":null,"mass_kg":null,"dimensions":null,"purposes":[],"wikipedia_slug":null,"has_3d_model":false,"image_url":null,"decayed_at":null,"tle_current":{"epoch":"2026-05-24T12:18:05.497632Z","epoch_age_seconds":107343,"freshness":"FRESH","line1":"1 68947U 26098AE  26144.51256363  .00105556  00000+0  29026-2 0  9999","line2":"2 68947  51.8736 181.5901 0007098  69.3476 290.8271 15.36327028  3717","mean_motion":15.36327028,"eccentricity":0.0007098,"inclination_deg":51.8736,"raan_deg":181.5901,"arg_perigee_deg":69.3476,"mean_anomaly_deg":290.8271,"bstar":0.0029026,"rev_number":371,"period_min":93.730044043722,"perigee_km":452.13012721836,"apogee_km":461.83326171703,"semimajor_km":6835.1186944677,"source":"CELESTRAK","updated_at":"2026-05-25T13:38:08.798625Z"}}}